This demonstration page uses our WeatherBlox Daily Observations layout. Learn more.

Left ArrowRight Arrow

Hourly Observations for June 12, 2018

Temp ( °F °C ) Dew Point ( °F °C ) Humidity (%) Winds ( mph kmh ) Pressure ( in mb ) Visibility ( mi km ) Precip ( " mm )
12:56 am 00:56 Clear 65 18.3 60 15.6 84 84 NNW 5 7 29.88 1012 10 16 0.00 0.00
1:56 am 01:56 Clear 64 17.8 59 15 84 84 NNW 6 9 29.87 1012 10 16 0.00 0.00
3:56 am 03:56 Clear 60 15.6 57 13.9 90 90 WNW 8 13 29.89 1012 10 16 0.00 0.00
4:56 am 04:56 Clear 61 16.1 58 14.4 90 90 NW 9 15 29.89 1012 10 16 0.00 0.00
5:56 am 05:56 Clear 59 15 57 13.9 93 93 N 5 7 29.90 1012 10 16 0.00 0.00
6:27 am 06:27 Mostly Sunny 61 16 57 14 88 88 N 9 15 29.88 1012 10 16 0.00 0.00
6:56 am 06:56 Sunny 61 16.1 58 14.4 90 90 NNE 8 13 29.91 1013 10 16 0.00 0.00
7:56 am 07:56 Sunny 65 18.3 61 16.1 87 87 NNE 8 13 29.92 1013 10 16 0.00 0.00
8:56 am 08:56 Sunny 70 21.1 63 17.2 79 79 E 5 7 29.93 1014 10 16 0.00 0.00
9:17 am 09:17 Mostly Sunny 72 22 64 18 78 78 ENE 5 7 29.88 1012 10 16 0.00 0.00
9:56 am 09:56 Sunny 73 22.8 64 17.8 74 74 E 6 9 29.95 1014 10 16 0.00 0.00
10:56 am 10:56 Hazy 78 25.6 62 16.7 58 58 NNW 7 11 29.95 1014 4 6 0.00 0.00
11:10 am 11:10 Hazy 79 26 64 18 61 61 NNW 9 15 29.88 1012 3 5 0.00 0.00
11:56 am 11:56 Sunny 81 27.2 61 16.1 51 51 NNW 10 17 29.96 1014 10 16 0.00 0.00
12:20 pm 12:20 Hazy 81 27 63 17 54 54 N 10 17 29.88 1012 3 5 0.00 0.00
12:56 pm 12:56 Hazy 81 27.2 63 17.2 54 54 N 8 13 29.95 1014 3 5 0.00 0.00
1:56 pm 13:56 Hazy 82 27.8 62 16.7 51 51 NNE 10 17 29.95 1014 6 10 0.00 0.00
2:56 pm 14:56 Mostly Sunny 84 28.9 63 17.2 49 49 N 8 13 29.93 1014 10 16 0.00 0.00
3:56 pm 15:56 Sunny 83 28.3 64 17.8 53 53 N 12 19 29.93 1014 9 14 0.00 0.00
4:56 pm 16:56 Mostly Sunny 83 28.3 62 16.7 49 49 VRB 6 9 29.92 1013 7 11 0.00 0.00
5:56 pm 17:56 Partly Cloudy 83 28.3 63 17.2 51 51 N 9 15 29.92 1013 10 16 0.00 0.00
6:56 pm 18:56 Sunny 81 27.2 61 16.1 51 51 NE 10 17 29.91 1013 10 16 0.00 0.00
7:56 pm 19:56 Sunny 80 26.7 63 17.2 56 56 ENE 14 22 29.91 1013 10 16 0.00 0.00
8:15 pm 20:15 Mostly Sunny 79 26 63 17 58 58 ENE 15 24 29.85 1011 10 16 0.00 0.00
8:56 pm 20:56 Sunny 75 23.9 63 17.2 66 66 NE 13 20 29.94 1014 10 16 0.00 0.00
9:56 pm 21:56 Clear 72 22.2 62 16.7 71 71 NE 12 19 30.00 1016 10 16 0.00 0.00
10:56 pm 22:56 Clear 69 20.6 61 16.1 76 76 NE 9 15 30.03 1017 10 16 0.00 0.00
11:56 pm 23:56 Clear 68 20 61 16.1 78 78 NE 14 22 30.02 1017 10 16 0.00 0.00

Powered by AerisWeather